"Pseudo-MPEC" for p0008M

Created 2025 Jul 7 23:35:14 UT using Find_Orb

Click here for an explanation of pseudo-MPECs

 
 Astrometry: 
     p0008M * C2025 06 20.45355418 54 08.919+44 11 43.12   ~6KN5 21.61wXNEOCPF52
     p0008M   C2025 06 20.46713418 54 08.924+44 11 44.18   ~6KN5 21.5 wXNEOCPF52
     p0008M   C2025 06 20.48071718 54 08.921+44 11 45.28   ~6KN5 21.7 wXNEOCPF52
     p0008M   C2025 06 20.49435618 54 08.860+44 11 46.17   ~6KN5 21.6 wXNEOCPF52

Station data:
(F52) Pan-STARRS 2, Haleakala  (N20.707382 W156.255910)  US/Hawaii.
   Observers J. Bulger, T. Dukes, T. Lowe, A. Schultz, M. Willman. Measurers
   K. Chambers, S. Chastel, T. de Boer, L. Denneau, J. Fairlamb, H.
   Flewelling, M. Huber, C.-C. Lin, E. Magnier, Y. Ramanjooloo, R. Wainscoat,
   R. Weryk. 1.8-m Ritchey-Chrétien + CCD.

Orbital elements:  p0008M
   Perihelion 2025 Jun 5.73068 +/- 41.6 TT = 17:32:10 (JD 2460832.23068)
Epoch 2025 Jun 20.0 TT = JDT 2460846.5   Earth MOID: 0.5628   Ma: 0.0650
M   4.87161258 +/- 17               (J2000 ecliptic)             AutoNEOCP
n   0.34140468 +/- 0.278            Peri.   85.88107 +/- 70
a   2.02747914 +/- 1.1              Node   176.83402 +/- 40
e   0.3317745 +/- 0.275             Incl.   24.46071 +/- 9
P   2.88692                H 20.18  G  0.15   U 11.9  SR
q 1.35481314 +/- 0.335    Q 2.70014515 +/- 94.3
From 4 observations 2025 June 20 (58.8 min); mean residual 0".13
Residuals in arcseconds: 
250620 F52  .15-  .01+    250620 F52  .26+  .03+    
250620 F52  .09+  .04-    250620 F52  .20-  .03-    

Ephemerides (geocentric):
Date (UTC) HH   RA             Dec           delta  r     elong  mag " sig PA
---- --------  ------------   ------------  ------ ------ -----  --- --------
2025 07 08 00  18 54 12.898   +42 17 31.06  .59943 1.3821 115.1 21.4  34d  53
2025 07 08 01  18 54 12.844   +42 16 54.89  .59941 1.3822 115.1 21.4  34d  53
2025 07 08 02  18 54 12.789   +42 16 18.62  .59939 1.3822 115.1 21.4  35d  53
2025 07 08 03  18 54 12.736   +42 15 42.25  .59936 1.3823 115.2 21.4  35d  53
2025 07 08 04  18 54 12.683   +42 15 05.79  .59934 1.3824 115.2 21.4  35d  53
2025 07 08 05  18 54 12.630   +42 14 29.24  .59931 1.3824 115.2 21.4  35d  53
2025 07 08 06  18 54 12.578   +42 13 52.59  .59929 1.3825 115.2 21.4  35d  54
2025 07 08 07  18 54 12.527   +42 13 15.84  .59926 1.3826 115.2 21.4  35d  54
2025 07 08 08  18 54 12.477   +42 12 39.00  .59924 1.3827 115.2 21.4  35d  54
2025 07 08 09  18 54 12.427   +42 12 02.06  .59921 1.3827 115.2 21.4  35d  54
2025 07 08 10  18 54 12.377   +42 11 25.03  .59919 1.3828 115.2 21.4  36d  54
2025 07 08 11  18 54 12.329   +42 10 47.91  .59916 1.3829 115.3 21.4  36d  54
2025 07 08 12  18 54 12.281   +42 10 10.69  .59914 1.3829 115.3 21.4  36d  54
2025 07 08 13  18 54 12.233   +42 09 33.37  .59912 1.3830 115.3 21.4  36d  54
2025 07 08 14  18 54 12.186   +42 08 55.96  .59909 1.3831 115.3 21.4  36d  54
2025 07 08 15  18 54 12.140   +42 08 18.45  .59907 1.3831 115.3 21.4  36d  54
2025 07 08 16  18 54 12.095   +42 07 40.84  .59904 1.3832 115.3 21.4  36d  54
2025 07 08 17  18 54 12.050   +42 07 03.15  .59902 1.3833 115.3 21.4  36d  54
2025 07 08 18  18 54 12.006   +42 06 25.35  .59899 1.3834 115.3 21.4  36d  54
2025 07 08 19  18 54 11.963   +42 05 47.46  .59897 1.3834 115.4 21.4  36d  54
2025 07 08 20  18 54 11.920   +42 05 09.48  .59895 1.3835 115.4 21.4  36d  54
2025 07 08 21  18 54 11.878   +42 04 31.40  .59892 1.3836 115.4 21.4  36d  54
2025 07 08 22  18 54 11.837   +42 03 53.23  .59890 1.3836 115.4 21.4  36d  54
2025 07 08 23  18 54 11.796   +42 03 14.96  .59887 1.3837 115.4 21.4  36d  54
2025 07 09 00  18 54 11.756   +42 02 36.59  .59885 1.3838 115.4 21.4  36d  54
2025 07 09 01  18 54 11.717   +42 01 58.13  .59883 1.3839 115.4 21.4  36d  54
2025 07 09 02  18 54 11.679   +42 01 19.58  .59880 1.3839 115.5 21.4  36d  54
2025 07 09 03  18 54 11.641   +42 00 40.93  .59878 1.3840 115.5 21.4  36d  54
2025 07 09 04  18 54 11.604   +42 00 02.18  .59875 1.3841 115.5 21.4  36d  54
2025 07 09 05  18 54 11.568   +41 59 23.34  .59873 1.3841 115.5 21.4  36d  54
2025 07 09 06  18 54 11.532   +41 58 44.40  .59871 1.3842 115.5 21.4  36d  54
2025 07 09 07  18 54 11.498   +41 58 05.37  .59868 1.3843 115.5 21.4  37d  54
2025 07 09 08  18 54 11.464   +41 57 26.24  .59866 1.3844 115.5 21.4  37d  53
2025 07 09 09  18 54 11.430   +41 56 47.02  .59864 1.3844 115.5 21.4  37d  53
2025 07 09 10  18 54 11.398   +41 56 07.71  .59861 1.3845 115.6 21.4  37d  53
2025 07 09 11  18 54 11.366   +41 55 28.29  .59859 1.3846 115.6 21.4  37d  53
2025 07 09 12  18 54 11.335   +41 54 48.78  .59856 1.3846 115.6 21.4  37d  53
2025 07 09 13  18 54 11.305   +41 54 09.18  .59854 1.3847 115.6 21.4  37d  53
2025 07 09 14  18 54 11.276   +41 53 29.48  .59852 1.3848 115.6 21.4  37d  53
2025 07 09 15  18 54 11.247   +41 52 49.69  .59849 1.3849 115.6 21.4  37d  53
2025 07 09 16  18 54 11.220   +41 52 09.80  .59847 1.3849 115.6 21.4  38d  53
2025 07 09 17  18 54 11.193   +41 51 29.82  .59845 1.3850 115.6 21.4  38d  53
2025 07 09 18  18 54 11.167   +41 50 49.74  .59842 1.3851 115.7 21.4  38d  53
2025 07 09 19  18 54 11.141   +41 50 09.56  .59840 1.3851 115.7 21.4  38d  53
2025 07 09 20  18 54 11.117   +41 49 29.29  .59838 1.3852 115.7 21.4  38d  53
2025 07 09 21  18 54 11.093   +41 48 48.93  .59835 1.3853 115.7 21.4  39d  53
2025 07 09 22  18 54 11.070   +41 48 08.47  .59833 1.3854 115.7 21.4  39d  53
2025 07 09 23  18 54 11.048   +41 47 27.92  .59831 1.3854 115.7 21.4  39d  53